This demonstration page uses our WeatherBlox Daily Observations layout. Learn more.

Left ArrowRight Arrow

Hourly Observations for November 2, 2015

Temp ( °F °C ) Dew Point ( °F °C ) Humidity (%) Winds ( mph kmh ) Pressure ( in mb ) Visibility ( mi km ) Precip ( " mm )
12:53 am 00:53 Clear with Mist and Fog 43 6.1 42 5.6 97 97 Calm 30.07 1018 3 5 0.00 0.00
1:01 am 01:01 Clear with Mist and Fog 43 6.1 41 5 93 93 Calm 30.09 1019 2 3 0.00 0.00
1:03 am 01:03 Clear with Mist and Fog 43 6.1 41 5 93 93 Calm 30.09 1019 1 1 0.00 0.00
1:18 am 01:18 Clear with Mist and Fog 42 5.6 41 5 96 96 Calm 30.09 1019 2 3 0.00 0.00
1:21 am 01:21 Mostly Clear with Mist and Fog 42 5.6 41 5 96 96 Calm 30.09 1019 3 5 0.00 0.00
1:26 am 01:26 Mostly Clear with Mist and Fog 42 5.6 41 5 96 96 Calm 30.09 1019 2 3 0.00 0.00
1:28 am 01:28 Mostly Cloudy with Mist and Fog 42 5.6 41 5 96 96 Calm 30.09 1019 1 2 0.00 0.00
1:35 am 01:35 Mostly Cloudy with Fog 42 5.6 41 5 96 96 Calm 30.09 1019 1 1 0.00 0.00
1:40 am 01:40 Mostly Clear with Mist and Fog 42 5.6 41 5 96 96 Calm 30.09 1019 1 2 0.00 0.00
1:45 am 01:45 Mostly Clear with Mist and Fog 42 5.6 41 5 96 96 Calm 30.09 1019 2 3 0.00 0.00
1:53 am 01:53 Clear with Mist and Fog 41 5 41 5 100 100 Calm 30.07 1018 1 2 0.00 0.00
2:00 am 02:00 Mostly Cloudy with Mist and Fog 42 5.6 41 5 96 96 Calm 30.09 1019 1 1 0.00 0.00
2:04 am 02:04 Clear with Mist and Fog 41 5 41 5 100 100 Calm 30.09 1019 1 2 0.00 0.00
2:17 am 02:17 Clear with Fog 41 5 40 4.4 96 96 Calm 30.09 1019 0 0 0.00 0.00
2:29 am 02:29 Mostly Cloudy with Fog 40 4.4 40 4.4 100 100 Calm 30.09 1019 0 0 0.00 0.00
2:46 am 02:46 Partly Cloudy with Mist and Fog 40 4.4 39 3.9 97 97 Calm 30.09 1019 1 2 0.00 0.00
2:48 am 02:48 Partly Cloudy with Mist and Fog 39 4 39 4 100 100 Calm 30.09 1019 3 5 0.00 0.00
2:53 am 02:53 Mostly Cloudy 40 4.4 40 4.4 100 100 Calm 30.06 1018 10 16 0.00 0.00
3:02 am 03:02 Mostly Cloudy with Mist and Fog 40 4.4 39 3.9 97 97 Calm 30.09 1019 3 4 0.00 0.00
3:05 am 03:05 Mostly Cloudy with Mist and Fog 40 4.4 39 3.9 97 97 Calm 30.09 1019 1 1 0.00 0.00
3:49 am 03:49 Cloudy with Mist and Fog 39 4 39 4 100 100 Calm 30.09 1019 2 3 0.00 0.00
3:53 am 03:53 Mostly Cloudy with Mist and Fog 40 4.4 39 3.9 97 97 Calm 30.05 1018 2 3 0.00 0.00
3:57 am 03:57 Mostly Cloudy with Mist and Fog 40 4.4 40 4.4 100 100 Calm 30.09 1019 1 1 0.00 0.00
4:06 am 04:06 Mostly Cloudy with Mist and Fog 40 4.4 39 3.9 97 97 Calm 30.09 1019 2 3 0.00 0.00
4:13 am 04:13 Partly Cloudy 40 4.4 39 3.9 97 97 Calm 30.09 1019 9 14 0.00 0.00
4:25 am 04:25 Partly Cloudy with Mist and Fog 39 3.9 39 3.9 100 100 Calm 30.09 1019 2 3 0.00 0.00
4:27 am 04:27 Mostly Cloudy with Mist and Fog 39 3.9 39 3.9 100 100 Calm 30.09 1019 1 2 0.00 0.00
4:35 am 04:35 Mostly Cloudy with Fog 39 3.9 39 3.9 100 100 Calm 30.09 1019 1 1 0.00 0.00
4:53 am 04:53 Mostly Cloudy with Fog 39 3.9 39 3.9 100 100 Calm 30.06 1018 0 0 0.00 0.00
5:53 am 05:53 Mostly Cloudy with Fog 42 5.6 42 5.6 100 100 Calm 30.06 1018 0 0 0.00 0.00
6:15 am 06:15 Mostly Cloudy with Mist and Fog 41 5 41 5 100 100 Calm 30.09 1019 1 2 0.00 0.00
6:20 am 06:20 Partly Cloudy with Mist and Fog 41 5 40 4.4 96 96 Calm 30.09 1019 2 3 0.00 0.00
6:25 am 06:25 Partly Cloudy with Mist and Fog 41 5 40 4.4 96 96 Calm 30.09 1019 3 5 0.00 0.00
6:53 am 06:53 Clear with Mist and Fog 41 5 41 5 100 100 Calm 30.09 1019 6 10 0.00 0.00
7:53 am 07:53 Sunny with Mist and Fog 44 6.7 43 6.1 96 96 Calm 30.09 1019 5 8 0.00 0.00
8:53 am 08:53 Sunny with Mist and Fog 52 11.1 51 10.6 97 97 N 3 6 30.09 1019 6 10 0.00 0.00
9:53 am 09:53 Sunny 59 15 53 11.7 81 81 Calm 30.09 1019 9 14 0.00 0.00
10:53 am 10:53 Sunny 66 18.9 48 8.9 52 52 Calm 30.07 1018 10 16 0.00 0.00
11:53 am 11:53 Sunny 68 20 45 7.2 44 44 VRB 7 11 30.08 1019 10 16 0.00 0.00
12:53 pm 12:53 Sunny 69 20.6 46 7.8 44 44 VRB 6 9 30.07 1018 10 16 0.00 0.00
1:53 pm 13:53 Sunny 69 20.6 48 8.9 47 47 E 7 11 30.04 1017 10 16 0.00 0.00
2:53 pm 14:53 Sunny 72 22.2 46 7.8 40 40 ESE 7 11 30.03 1017 10 16 0.00 0.00
3:53 pm 15:53 Sunny 71 21.7 47 8.3 42 42 ESE 6 9 30.03 1017 10 16 0.00 0.00
4:53 pm 16:53 Sunny 68 20 47 8.3 47 47 E 6 9 30.04 1017 10 16 0.00 0.00
5:53 pm 17:53 Clear 56 13.3 47 8.3 72 72 Calm 30.06 1018 10 16 0.00 0.00
6:53 pm 18:53 Clear 51 10.6 46 7.8 83 83 Calm 30.08 1019 10 16 0.00 0.00
7:53 pm 19:53 Clear 47 8.3 44 6.7 90 90 Calm 30.08 1019 10 16 0.00 0.00
8:53 pm 20:53 Clear 45 7.2 43 6.1 93 93 Calm 30.08 1019 10 16 0.00 0.00
9:53 pm 21:53 Clear 45 7.2 43 6.1 93 93 Calm 30.09 1019 10 16 0.00 0.00
10:53 pm 22:53 Clear 42 5.6 41 5 96 96 Calm 30.09 1019 10 16 0.00 0.00
11:53 pm 23:53 Clear 41 5 39 3.9 93 93 Calm 30.09 1019 10 16 0.00 0.00

Powered by AerisWeather